Voltar ao catálogo

FENGYUN 3B

AtivoMeteoSSO
NORAD 37214·PAYLOAD·🇨🇳 China

Lançado Nov 4, 2010 de Taiyuan Satellite Launch Center

Loading…

Próximas Passagens (próximas 24 horas)

TLE

AtualizadoSource: Space-Track

Época: Sep 14, 2026, 15:19 UTC

1 37214U 10059A   26257.63880579  .00000414  00000-0  23744-3 0  9992
2 37214  98.9537 303.9967 0021164 294.5577 217.6676 14.14858702820072

Acompanhe FENGYUN 3B em tempo real com AllMySat

Download on the App Store